�������l�o���
Date,Time,MP-1(��Sv/h),MP-2(��Sv/h),MP-3(��Sv/h),MP-4(��Sv/h),MP-5(��Sv/h),MP-6(��Sv/h),MP-7(��Sv/h),����,����(m/s),���J
2014/11/14,00:00,0.619,0.393,0.649,0.589,0.586,0.271,0.238,���쐼,5.9,��
2014/11/14,00:10,0.618,0.395,0.652,0.588,0.585,0.272,0.237,���쐼,4.8,��
2014/11/14,00:20,0.620,0.394,0.653,0.587,0.585,0.271,0.238,���쐼,4.3,��
2014/11/14,00:30,0.620,0.392,0.650,0.588,0.587,0.270,0.238,��,4.7,��
2014/11/14,00:40,0.619,0.394,0.650,0.586,0.584,0.272,0.238,��,4.2,��
2014/11/14,00:50,0.620,0.395,0.652,0.588,0.587,0.272,0.238,���쐼,3.9,��
2014/11/14,01:00,0.620,0.394,0.651,0.587,0.588,0.271,0.238,�쐼,3.1,��
2014/11/14,01:10,0.619,0.393,0.651,0.587,0.585,0.271,0.237,�쐼,2.4,��
2014/11/14,01:20,0.619,0.394,0.649,0.587,0.585,0.271,0.239,���쐼,2.2,��
2014/11/14,01:30,0.621,0.394,0.651,0.589,0.585,0.271,0.237,��,3.1,��
2014/11/14,01:40,0.619,0.395,0.651,0.587,0.586,0.271,0.238,���쐼,3.8,��
2014/11/14,01:50,0.618,0.395,0.651,0.589,0.586,0.271,0.237,���쐼,4.1,��
2014/11/14,02:00,0.620,0.395,0.652,0.588,0.586,0.271,0.238,�쐼,2.5,��
2014/11/14,02:10,0.619,0.394,0.651,0.589,0.587,0.272,0.238,���쐼,2.8,��
2014/11/14,02:20,0.620,0.394,0.650,0.589,0.585,0.271,0.238,���쐼,4.7,��
2014/11/14,02:30,0.621,0.395,0.651,0.589,0.584,0.271,0.238,���쐼,3.9,��
2014/11/14,02:40,0.620,0.395,0.649,0.588,0.585,0.272,0.238,���쐼,3.3,��
2014/11/14,02:50,0.618,0.395,0.650,0.589,0.586,0.271,0.239,���쐼,3.6,��
2014/11/14,03:00,0.620,0.395,0.652,0.588,0.587,0.271,0.238,���쐼,6.2,��
2014/11/14,03:10,0.619,0.394,0.650,0.589,0.584,0.272,0.239,��,5.4,��
2014/11/14,03:20,0.620,0.396,0.651,0.589,0.585,0.272,0.239,��,5.3,��
2014/11/14,03:30,0.619,0.394,0.653,0.589,0.586,0.270,0.238,��,3.4,��
2014/11/14,03:40,0.618,0.395,0.651,0.589,0.586,0.272,0.237,��,3.0,��
2014/11/14,03:50,0.619,0.394,0.652,0.589,0.586,0.271,0.237,��,2.9,��
2014/11/14,04:00,0.619,0.394,0.654,0.587,0.586,0.272,0.238,���쐼,2.4,��
2014/11/14,04:10,0.619,0.395,0.651,0.589,0.586,0.271,0.239,��,3.9,��
2014/11/14,04:20,0.620,0.394,0.651,0.588,0.587,0.271,0.237,���쐼,2.3,��
2014/11/14,04:30,0.618,0.394,0.650,0.589,0.586,0.271,0.237,���쐼,2.8,��
2014/11/14,04:40,0.618,0.393,0.651,0.589,0.585,0.272,0.238,���쐼,3.9,��
2014/11/14,04:50,0.622,0.392,0.651,0.587,0.586,0.271,0.237,���쐼,6.9,��
2014/11/14,05:00,0.620,0.395,0.651,0.589,0.587,0.271,0.237,���쐼,7.2,��
2014/11/14,05:10,0.619,0.393,0.651,0.588,0.585,0.271,0.239,���쐼,7.0,��
2014/11/14,05:20,0.619,0.393,0.651,0.587,0.587,0.271,0.237,���쐼,7.5,��
2014/11/14,05:30,0.620,0.393,0.649,0.588,0.585,0.271,0.238,���쐼,6.5,��
2014/11/14,05:40,0.621,0.395,0.651,0.589,0.587,0.271,0.237,���쐼,6.9,��
2014/11/14,05:50,0.620,0.394,0.651,0.588,0.586,0.272,0.237,���쐼,6.7,��
2014/11/14,06:00,0.619,0.394,0.651,0.588,0.586,0.271,0.237,���쐼,5.0,��
2014/11/14,06:10,0.620,0.395,0.650,0.588,0.585,0.271,0.238,���쐼,4.7,��
2014/11/14,06:20,0.620,0.396,0.650,0.589,0.586,0.272,0.238,���쐼,4.2,��
2014/11/14,06:30,0.619,0.394,0.652,0.589,0.586,0.272,0.237,�쐼,2.2,��
2014/11/14,06:40,0.621,0.394,0.650,0.589,0.586,0.272,0.236,���쐼,3.4,��
2014/11/14,06:50,0.619,0.393,0.653,0.588,0.585,0.270,0.238,�쐼,3.7,��
2014/11/14,07:00,0.619,0.395,0.653,0.589,0.587,0.272,0.237,�쐼,2.5,��
2014/11/14,07:10,0.620,0.394,0.652,0.589,0.587,0.272,0.238,�쐼,3.3,��
2014/11/14,07:20,0.618,0.393,0.651,0.590,0.586,0.272,0.237,�쐼,3.6,��
2014/11/14,07:30,0.619,0.395,0.652,0.589,0.586,0.270,0.237,�쐼,4.6,��
2014/11/14,07:40,0.621,0.394,0.652,0.589,0.587,0.272,0.235,�쐼,5.3,��
2014/11/14,07:50,0.620,0.395,0.651,0.590,0.587,0.271,0.237,���쐼,5.1,��
2014/11/14,08:00,0.621,0.393,0.652,0.589,0.586,0.271,0.237,�쐼,6.0,��
2014/11/14,08:10,0.620,0.395,0.653,0.590,0.586,0.272,0.236,�쐼,4.5,��
2014/11/14,08:20,0.621,0.395,0.651,0.591,0.586,0.272,0.237,��,2.4,��
2014/11/14,08:30,0.620,0.393,0.651,0.592,0.586,0.272,0.236,��쐼,3.1,��
2014/11/14,08:40,0.622,0.393,0.654,0.591,0.586,0.272,0.237,��쐼,3.1,��
2014/11/14,08:50,0.621,0.395,0.652,0.592,0.587,0.271,0.236,��쐼,3.3,��
2014/11/14,09:00,0.621,0.396,0.653,0.591,0.586,0.271,0.236,�쐼,2.8,��
2014/11/14,09:10,0.621,0.394,0.652,0.590,0.586,0.272,0.237,�쐼,1.8,��
2014/11/14,09:20,0.621,0.395,0.652,0.592,0.588,0.272,0.235,���쐼,5.0,��
2014/11/14,09:30,0.621,0.394,0.652,0.594,0.586,0.270,0.237,�쐼,3.4,��
2014/11/14,09:40,0.620,0.394,0.655,0.592,0.588,0.273,0.235,�쐼,4.8,��
2014/11/14,09:50,0.623,0.394,0.652,0.593,0.587,0.271,0.238,��쐼,4.2,��
2014/11/14,10:00,0.620,0.394,0.652,0.595,0.585,0.271,0.238,�쐼,5.8,��
2014/11/14,10:10,0.623,0.396,0.654,0.594,0.587,0.272,0.237,�쐼,2.8,��
2014/11/14,10:20,0.621,0.396,0.653,0.594,0.588,0.272,0.238,���쐼,6.0,��
2014/11/14,10:30,0.622,0.395,0.652,0.597,0.590,0.271,0.236,���쐼,4.9,��
2014/11/14,10:40,0.623,0.397,0.655,0.595,0.590,0.271,0.236,�쐼,7.6,��
2014/11/14,10:50,0.624,0.397,0.655,0.595,0.590,0.271,0.239,���쐼,5.6,��
2014/11/14,11:00,0.624,0.397,0.654,0.598,0.592,0.272,0.237,�쐼,5.1,��
2014/11/14,11:10,0.625,0.397,0.654,0.598,0.591,0.271,0.238,�쐼,5.8,��
2014/11/14,11:20,0.624,0.398,0.651,0.597,0.592,0.273,0.238,�쐼,4.3,��
2014/11/14,11:30,0.624,0.399,0.654,0.599,0.591,0.271,0.237,�쐼,2.8,��
2014/11/14,11:40,0.625,0.400,0.653,0.601,0.592,0.272,0.238,���쐼,3.4,��
2014/11/14,11:50,0.625,0.400,0.653,0.599,0.591,0.271,0.237,�쐼,2.4,��
2014/11/14,12:00,0.627,0.399,0.655,0.600,0.591,0.273,0.239,���쐼,5.0,��
2014/11/14,12:10,0.626,0.400,0.656,0.599,0.589,0.273,0.238,��,3.7,��
2014/11/14,12:20,0.626,0.399,0.652,0.602,0.591,0.272,0.239,���쐼,3.5,��
2014/11/14,12:30,0.626,0.397,0.657,0.601,0.589,0.272,0.239,���쐼,4.5,��
2014/11/14,12:40,0.625,0.399,0.656,0.600,0.589,0.271,0.238,���쐼,3.9,��
2014/11/14,12:50,0.627,0.397,0.656,0.601,0.590,0.273,0.239,���쐼,2.6,��
2014/11/14,13:00,0.630,0.398,0.656,0.601,0.591,0.273,0.239,���쐼,3.3,��
2014/11/14,13:10,0.629,0.399,0.657,0.605,0.590,0.273,0.238,���k��,3.9,��
2014/11/14,13:20,0.629,0.399,0.657,0.605,0.590,0.271,0.239,�k��,3.2,��
2014/11/14,13:30,0.624,0.399,0.656,0.605,0.590,0.273,0.238,�k��,3.1,��
2014/11/14,13:40,0.622,0.398,0.657,0.604,0.589,0.271,0.239,���k��,6.7,��
2014/11/14,13:50,0.624,0.399,0.656,0.603,0.585,0.273,0.238,���k��,6.2,��
2014/11/14,14:00,0.623,0.398,0.656,0.604,0.587,0.270,0.239,���k��,3.9,��
2014/11/14,14:10,0.620,0.397,0.655,0.603,0.587,0.274,0.238,���k��,5.3,��
2014/11/14,14:20,0.620,0.397,0.653,0.603,0.588,0.271,0.238,���k��,5.5,��
2014/11/14,14:30,0.622,0.396,0.654,0.599,0.587,0.271,0.238,���k��,7.7,��
2014/11/14,14:40,0.622,0.399,0.653,0.600,0.587,0.271,0.239,���k��,6.1,��
2014/11/14,14:50,0.621,0.396,0.652,0.598,0.587,0.270,0.239,���k��,5.5,��
2014/11/14,15:00,0.621,0.397,0.654,0.595,0.584,0.271,0.238,�k��,4.9,��
2014/11/14,15:10,0.620,0.397,0.653,0.594,0.585,0.270,0.239,���k��,7.2,��
2014/11/14,15:20,0.622,0.395,0.653,0.596,0.585,0.272,0.238,��,7.3,��
2014/11/14,15:30,0.619,0.395,0.656,0.593,0.585,0.272,0.238,���k��,6.6,��
2014/11/14,15:40,0.621,0.393,0.654,0.591,0.583,0.273,0.240,���k��,6.9,��
2014/11/14,15:50,0.621,0.393,0.652,0.590,0.586,0.274,0.239,��,9.9,��
2014/11/14,16:00,0.620,0.395,0.652,0.588,0.586,0.273,0.240,���k��,7.2,��
2014/11/14,16:10,0.621,0.395,0.652,0.588,0.586,0.271,0.239,���k��,6.4,��
2014/11/14,16:20,0.621,0.396,0.654,0.587,0.586,0.273,0.239,���k��,5.2,��
2014/11/14,16:30,0.623,0.394,0.652,0.588,0.586,0.272,0.238,���k��,5.3,��
2014/11/14,16:40,0.621,0.395,0.653,0.590,0.586,0.272,0.239,���k��,8.8,��
2014/11/14,16:50,0.621,0.394,0.654,0.589,0.585,0.273,0.239,���k��,7.9,��
2014/11/14,17:00,0.622,0.396,0.654,0.590,0.586,0.273,0.238,���k��,5.8,��
2014/11/14,17:10,0.623,0.394,0.655,0.589,0.586,0.273,0.239,�k��,5.0,��
2014/11/14,17:20,0.623,0.396,0.654,0.592,0.587,0.272,0.239,�k,7.1,��
2014/11/14,17:30,0.623,0.396,0.655,0.590,0.586,0.272,0.240,�k�k��,7.8,��
2014/11/14,17:40,0.623,0.396,0.654,0.591,0.587,0.273,0.239,�k�k��,5.1,��
2014/11/14,17:50,0.622,0.395,0.654,0.590,0.586,0.272,0.240,�k�k��,3.3,��
2014/11/14,18:00,0.623,0.397,0.655,0.590,0.588,0.272,0.240,�k�k��,3.6,��
2014/11/14,18:10,0.623,0.395,0.655,0.592,0.587,0.273,0.239,�k�k��,4.7,��
2014/11/14,18:20,0.623,0.395,0.653,0.591,0.587,0.272,0.240,�k�k��,3.6,��
2014/11/14,18:30,0.624,0.397,0.654,0.590,0.587,0.273,0.239,�k�k��,2.3,��
2014/11/14,18:40,0.621,0.396,0.655,0.590,0.585,0.273,0.239,�k,2.4,��
2014/11/14,18:50,0.623,0.396,0.654,0.590,0.588,0.272,0.238,�k,4.6,��
2014/11/14,19:00,0.622,0.395,0.654,0.591,0.587,0.274,0.239,�k,4.0,��
2014/11/14,19:10,0.622,0.397,0.654,0.592,0.587,0.272,0.239,�k�k��,3.4,��
2014/11/14,19:20,0.622,0.396,0.654,0.593,0.588,0.272,0.240,�k��,2.4,��
2014/11/14,19:30,0.624,0.395,0.653,0.590,0.586,0.272,0.240,�k,2.9,�L
2014/11/14,19:40,0.620,0.396,0.652,0.590,0.587,0.271,0.238,�k,2.5,��
2014/11/14,19:50,0.622,0.394,0.653,0.590,0.587,0.273,0.239,�k,2.7,��
2014/11/14,20:00,0.623,0.395,0.656,0.590,0.587,0.273,0.240,�k��,1.2,��
2014/11/14,20:10,0.622,0.395,0.654,0.591,0.588,0.273,0.240,��,1.7,��
2014/11/14,20:20,0.622,0.394,0.654,0.591,0.587,0.273,0.239,��,3.0,��
2014/11/14,20:30,0.624,0.395,0.652,0.590,0.586,0.273,0.238,�k��,0.6,��
2014/11/14,20:40,0.623,0.394,0.654,0.591,0.587,0.271,0.239,�k,1.2,��
2014/11/14,20:50,0.619,0.394,0.654,0.591,0.587,0.274,0.239,��,1.1,��
2014/11/14,21:00,0.621,0.395,0.652,0.591,0.585,0.274,0.240,�k��,0.9,��
2014/11/14,21:10,0.621,0.395,0.654,0.591,0.586,0.273,0.238,�k��,2.4,��
2014/11/14,21:20,0.622,0.394,0.653,0.591,0.586,0.273,0.240,��,5.0,��
2014/11/14,21:30,0.621,0.394,0.654,0.588,0.585,0.273,0.240,��,4.7,��
2014/11/14,21:40,0.622,0.395,0.652,0.590,0.586,0.273,0.239,��,3.1,��
2014/11/14,21:50,0.622,0.393,0.652,0.591,0.587,0.273,0.240,�쐼,2.5,��
2014/11/14,22:00,0.622,0.395,0.653,0.592,0.588,0.272,0.240,��,3.5,��
2014/11/14,22:10,0.622,0.393,0.654,0.590,0.587,0.272,0.239,���k��,3.0,��
2014/11/14,22:20,0.620,0.396,0.654,0.592,0.587,0.273,0.240,��,4.0,��
2014/11/14,22:30,0.622,0.394,0.652,0.590,0.587,0.272,0.239,��,5.4,��
2014/11/14,22:40,0.621,0.392,0.655,0.591,0.587,0.272,0.240,���쐼,2.8,��
2014/11/14,22:50,0.622,0.395,0.653,0.592,0.588,0.272,0.239,��,3.1,��
2014/11/14,23:00,0.621,0.397,0.653,0.591,0.588,0.273,0.240,��,2.4,��
2014/11/14,23:10,0.621,0.396,0.654,0.590,0.586,0.274,0.240,���k��,1.8,��
2014/11/14,23:20,0.621,0.395,0.656,0.591,0.588,0.270,0.240,��,1.9,��
2014/11/14,23:30,0.622,0.395,0.655,0.592,0.586,0.272,0.238,��,2.2,��
2014/11/14,23:40,0.623,0.395,0.656,0.590,0.586,0.273,0.240,��,1.9,��
2014/11/14,23:50,0.621,0.395,0.653,0.591,0.587,0.272,0.239,�쐼,3.9,��
